Location: Irais
(46.8793°N, 0.0926°W)
Time: 01:16:38
(UTC+00:00)

Daily predictions for brighter satellites

Satellite Brightness Start Highest point End
(mag) Time Altitude Azimuth Time Altitude Azimuth Time Altitude Azimuth
CENTAUR R/B 4.5 01:54:04 10° NW 02:00:53 33° NNE 02:08:29 10° E
ADEOS II 4.3 02:15:53 10° NNE 02:17:29 20° NNE 02:17:29 20° NNE
USA 234 4.4 02:20:36 10° ESE 02:24:09 34° E 02:24:09 34° E
Lacrosse 5 4.2 02:40:09 18° E 02:40:09 18° E 02:41:32 10° E
Cosmos 2082 Rocket 4.0 02:42:36 24° N 02:42:36 24° N 02:45:05 10° NNE
Cosmos 2333 Rocket 4.3 02:39:08 10° N 02:43:46 24° NE 02:48:24 10° E
Cosmos 2219 Rocket 4.2 02:54:09 10° N 02:58:50 26° NE 03:03:30 10° ESE
CZ-2C R/B 4.3 02:58:08 10° NE 03:01:51 23° E 03:02:02 23° E
CZ-2D R/B 4.4 03:05:54 10° N 03:06:50 14° NNW 03:06:50 14° NNW
USA 238 DEB 4.3 03:05:49 10° NW 03:12:56 60° NE 03:20:23 10° SE
USA 238 4.3 03:05:56 10° NW 03:13:03 60° NE 03:20:29 10° ESE
S3M 4.2 03:21:13 61° SE 03:21:53 65° E 03:28:02 10° NNE
ARIANE 5 R/B 3.4 03:20:01 10° NNE 03:23:22 43° N 03:23:22 43° N
Cosmos 1745 Rocket 4.0 03:19:08 10° N 03:25:28 78° E 03:26:32 63° SSE
USA 267 3.2 03:28:46 10° NE 03:35:17 69° NNW 03:35:57 65° WNW
Cosmos 2322 4.4 03:30:39 10° NNW 03:36:13 52° ENE 03:41:45 10° SE
NOSS 3-2 (A) 3.9 03:34:14 10° NW 03:41:46 88° SW 03:50:20 10° SE
H-2A R/B 4.4 03:39:11 10° ESE 03:42:29 23° ENE 03:45:45 10° NNE
Spot 4 Rocket 4.0 03:41:39 10° NNE 03:46:28 77° N 03:46:28 77° N
Cosmos 2344 3.4 03:46:42 52° SSW 03:48:50 86° SE 03:56:49 10° NE
COSMOS 2487 4.4 03:50:12 28° NE 03:50:12 28° NE 03:52:10 10° NE
Cosmos 1833 4.1 03:48:29 69° S 03:49:07 79° ESE 03:54:47 10° NNE
Cosmos 1386 Rocket 4.4 03:46:04 10° NNW 03:52:27 71° W 03:53:42 56° SSW
CENTAUR R/B 3.2 03:44:43 10° NW 03:52:49 81° NE 04:01:44 10° SE
Cosmos 2251 Rocket 3.8 03:53:53 47° SSE 03:55:16 66° ESE 04:00:36 10° NNE
ISS -2.1 04:00:40 34° ENE 04:00:40 34° ENE 04:02:53 10° E
Cosmos 2360 Rocket 4.2 04:04:24 14° S 04:04:24 14° S 04:05:12 10° S
ADEOS II 4.1 03:56:45 10° NNW 03:58:26 16° NNW 03:58:26 16° NNW
IDEFIX/ARIANE 42P 3.8 03:57:19 10° N 04:00:30 28° NW 04:00:30 28° NW
ALOS 3.3 03:58:48 10° NNE 04:03:17 45° E 04:07:02 14° SSE
PAYLOAD A 4.0 03:58:14 10° NNE 04:03:36 88° WNW 04:05:04 50° SSW
CZ-2C R/B 3.8 04:01:46 10° N 04:04:15 37° N 04:04:15 37° N
Cosmos 2237 Rocket 4.2 04:01:49 10° N 04:06:39 27° NE 04:11:26 10° ESE
Cosmos 2333 4.1 04:01:34 10° NNW 04:07:23 85° WSW 04:13:10 10° SSE
USA 234 3.3 04:03:50 10° SSE 04:10:09 51° SW 04:11:34 44° W
CZ-4C R/B 2.9 04:10:13 25° S 04:12:43 44° ESE 04:18:11 10° NE
Cosmos 883 Rocket 4.3 04:11:11 28° SSW 04:14:38 81° W 04:20:48 10° N
USA 276 3.2 04:16:02 46° E 04:16:02 46° E 04:18:25 10° ENE
PSLV R/B 3.6 04:11:35 10° NNE 04:16:00 82° ESE 04:17:21 44° S
GENESIS II 4.3 04:17:05 66° NNW 04:17:05 66° NNW 04:20:47 10° NNE
Lacrosse 5 1.8 04:19:24 56° WSW 04:19:57 60° SW 04:24:55 10° SE
NOSS 3-4 (A) 4.1 04:16:30 17° S 04:20:43 48° ESE 04:26:40 10° NE
NOSS 3-4 (C) 4.2 04:16:34 17° S 04:20:49 48° ESE 04:26:45 10° NE
NOSS 3-2 (C) 4.0 04:16:16 10° NW 04:23:49 80° SW 04:32:23 10° SSE
Cosmos 2082 Rocket 4.4 04:24:26 11° NW 04:25:27 11° NNW 04:26:58 10° NNW
Cosmos 2333 Rocket 2.1 04:22:52 10° NNW 04:28:39 73° WSW 04:34:23 10° SSE
Cosmos 2221 4.0 04:30:18 23° NW 04:30:18 23° NW 04:32:38 10° NNW
Cosmos 1484 Rocket 2.9 04:29:13 10° NNE 04:32:56 69° E 04:35:27 19° S
Cosmos 1805 Rocket 3.5 04:29:01 10° NNW 04:33:25 60° W 04:37:48 10° S
Cosmos 1437 Rocket 4.3 04:30:11 10° SSE 04:33:58 39° E 04:37:44 10° NNE
ATLAS 2AS CENTAUR R/B 3.9 04:28:27 10° S 04:35:57 49° ESE 04:43:23 10° NE
Landsat 5 3.2 04:32:47 10° S 04:36:35 63° WSW 04:40:30 10° NNW
Cosmos 2315 Rocket 3.9 04:34:41 14° SSW 04:40:03 64° WNW 04:46:14 10° N
CZ-2C R/B 2.6 04:35:49 10° N 04:40:19 44° WNW 04:41:25 37° WSW
CZ-4B R/B 3.5 04:38:15 10° SE 04:40:52 26° ENE 04:43:29 10° N
Cosmos 2297 Rocket 4.3 04:37:06 10° SSE 04:41:42 26° ESE 04:46:19 10° NE
COSMO-SKYMED 1 3.8 04:37:42 10° SE 04:41:49 44° ENE 04:45:58 10° N
Cosmos 2219 Rocket 2.1 04:37:39 10° NNW 04:43:16 65° WSW 04:48:52 10° SSE
Cosmos 1782 3.9 04:40:10 10° SSE 04:43:56 45° E 04:47:44 10° NNE
Cosmos 1606 3.3 04:47:57 35° WNW 04:47:57 35° WNW 04:51:32 10° N
CBERS 1 LM4 rocket 4.3 04:43:15 10° NNE 04:48:04 90° SE 04:52:48 10° SSW
Cosmos 1140 Rocket 3.9 04:44:11 10° S 04:49:18 63° ESE 04:54:26 10° NNE
Sich 1 3.1 04:45:45 10° NNW 04:50:04 52° W 04:54:18 10° S
Cosmos 1980 4.4 04:46:21 10° NNW 04:51:56 56° ENE 04:57:29 10° SE
METEOR-M 4.1 04:48:43 10° NNE 04:54:05 84° WNW 04:59:26 10° SSW
Cosmos 1666 Rocket 3.4 04:52:52 10° NNW 04:57:15 72° W 05:01:37 10° S
Cosmos 2074 Rocket 4.0 04:51:50 10° N 04:58:04 88° ENE 05:04:17 10° S
COSMOS 2428 2.7 04:54:18 10° NW 04:59:54 57° WSW 05:05:29 10° S
MOS 1 Rocket 3.3 04:56:31 10° SSE 05:00:54 77° ENE 05:05:35 10° N
BREEZE M DEB (TANK) 2.3 04:59:34 29° WNW 05:00:55 79° NNE 05:07:28 10° ESE
SeaSat 1 2.5 04:56:26 10° SE 05:01:22 81° ENE 05:06:20 10° NNW
BREEZE-M DEB (TANK) 2.9 05:00:37 23° W 05:03:11 57° N 05:05:40 10° ENE
ARIANE 5 R/B 4.3 05:00:55 10° NNW 05:03:27 14° NW 05:03:43 14° WNW
ATLAS 5 CENTAUR R/B 1.3 05:00:50 19° SW 05:03:39 89° SE 05:08:08 10° NE
USA 238 DEB 4.3 04:57:06 10° NW 05:03:44 39° WSW 05:10:36 10° S
USA 238 4.3 04:57:12 10° NW 05:03:51 39° WSW 05:10:43 10° S
CZ-4C R/B 3.9 05:04:28 27° WNW 05:04:28 27° WNW 05:06:56 10° NW
Cosmos 2154 Rocket 4.4 04:59:17 10° N 05:05:31 68° E 05:11:46 10° SSE
ATLAS 3B R/B 3.4 05:00:57 10° NW 05:07:48 58° NE 05:14:57 10° ESE
CZ-4B R/B 3.6 05:05:03 10° NNE 05:08:45 88° E 05:12:23 10° SSW
ADEOS 3.6 05:04:07 10° NNE 05:09:23 89° E 05:14:37 10° SSW
Cosmos 1602 3.7 05:07:04 10° NNW 05:10:58 66° W 05:14:50 10° S
FENGYUN 3A 4.0 05:10:01 10° N 05:15:09 44° WNW 05:20:15 10° SW
USA 267 4.1 05:11:46 10° NE 05:17:44 39° N 05:23:18 12° WNW
H-2A R/B 2.4 05:14:21 10° SSW 05:18:16 38° W 05:22:10 10° NNW
Meteor 1-25 Rocket 4.4 05:13:11 10° NNW 05:18:30 48° W 05:23:47 10° SSW
Cosmos 1151 Rocket 3.0 05:15:23 10° SSW 05:19:38 59° WNW 05:23:54 10° N
Cosmos 909 Rocket 4.2 05:14:58 12° SW 05:20:59 57° NW 05:27:12 10° NNE
Cosmos 2219 4.2 05:15:57 10° S 05:21:24 51° ESE 05:26:51 10° NE
NOSS 0 Rocket 3.9 05:17:40 10° NNW 05:23:48 66° WSW 05:29:55 10° SSE
COSMOS 2487 4.2 05:23:34 14° WNW 05:24:03 15° NW 05:26:05 10° NNW
Cosmos 2184 Rocket 4.0 05:18:44 10° NNW 05:25:00 63° W 05:31:15 10° S
Cosmos 1633 Rocket 3.4 05:24:08 10° NNW 05:28:16 41° W 05:32:22 10° SSW
SKYMED 2 3.6 05:25:33 10° S 05:29:50 60° W 05:34:09 10° NNW
H-2A R/B 3.0 05:29:58 10° NNE 05:33:55 77° ESE 05:37:46 10° S
Cosmos 1242 Rocket 2.9 05:31:21 10° S 05:34:46 65° E 05:38:15 10° NNE
ISS -3.2 05:33:39 13° WNW 05:36:25 43° SW 05:39:37 10° SE
Cosmos 1933 4.5 05:34:43 10° SW 05:38:01 24° WNW 05:41:20 10° NNW
Cosmos 1812 2.8 05:36:08 10° S 05:39:58 85° E 05:43:49 10° N
ALOS 3.4 05:36:44 10° NNW 05:40:27 24° WNW 05:44:08 10° WSW
CZ-2C R/B 3.7 05:36:35 10° SE 05:42:01 53° ENE 05:47:27 10° N
CENTAUR R/B 3.9 05:36:05 10° NW 05:43:09 32° WSW 05:50:37 10° S
BREEZE-M DEB (TANK) 3.5 05:42:22 10° NW 05:44:08 24° N 05:46:18 10° ENE
Meteor 1-31 Rocket 3.4 05:41:51 10° N 05:45:24 35° WNW 05:48:55 10° SW
Meteor 1-14 Rocket 4.3 05:40:43 10° NNW 05:46:15 57° W 05:51:54 10° S
Cosmos 1954 Rocket 4.0 05:42:43 10° SSW 05:48:00 77° WNW 05:53:16 10° NNE
RESURS DK-1 2.7 05:44:16 10° SSW 05:48:22 72° ESE 05:52:30 10° NNE
SAR-Lupe-4 3.8 05:47:08 10° SSE 05:50:41 75° ENE 05:54:16 10° N
Cosmos 2237 Rocket 2.3 05:45:31 10° NNW 05:51:06 59° WSW 05:56:38 10° S
Cosmos 1869 Rocket 4.4 05:46:47 10° N 05:51:13 57° ENE 05:55:37 10° SSE
USA 276 2.8 05:48:26 10° W 05:51:33 46° N 05:54:39 10° ENE
Cosmos 407 Rocket 4.1 05:49:17 10° SW 05:54:00 35° WNW 05:58:43 10° N
Timation 2 Rocket 4.3 05:52:06 10° SSW 05:58:59 88° ESE 06:05:45 10° NNE
